Chicago Midway International Airport Chicago US
ICAO: KMDW
IATA: MDW
Category: Large
Scheduled Services: Yes

Elevation: 620 ft
TransAlt. 18000 ft.

Airport Communications:
APP/DEP:118.4
ASOS:132.75
ATIS:132.75
CLNC DEL:121.85
GND:121.65
TWR:118.7
UNICOM:122.95

KMDW Zoom In..

Runways:

(A) RW 04L length 5507 ft width 150 ft
---- / hdg 44

(B) RW 04R length 6445 ft width 150 ft
ILS 111.50 / hdg 44

(C) RW 13C length 6522 ft width 150 ft
ILS 109.90 / hdg 135

(D) RW 13L length 5141 ft width 150 ft
---- / hdg 135

(E) RW 13R length 3859 ft width 60 ft
---- / hdg 135

(F) RW 22L length 6445 ft width 150 ft
---- / hdg 224

(G) RW 22R length 5507 ft width 150 ft
---- / hdg 224

(H) RW 31C length 6522 ft width 150 ft
ILS 109.90 / hdg 315

(I) RW 31L length 3859 ft width 60 ft
---- / hdg 315

(J) RW 31R length 5141 ft width 150 ft
---- / hdg 315

Location; KMDW
Day. 21 / Time. 05.53 Zulu
* Altimeter: 29.64
* Temperature: 21° c. 69.8°f.
* Wind from: 280° Speed 07 kn.
Dewpoint: 21° c.
Visibility: 10 Statute Miles.
Clouds: Broken 1300 ft.
Clouds: Overcast 2200 ft.

KMDW 210553Z 28007KT 10SM BKN013 OVC022 21/21 A2964 RMK AO2 RAE40 SLP029 P0000 60011 T02110206 10217 20211 402670211 56007 $


Wind From 280°
Speed 07 kn.

 
 
jpsmedia.com for Web Design worldairports.se 2018   terms of use